Date String (YYYY-MM-DD hh:mm:ss) UTC,Instrument flags,absolute air pressure of the measurement (hPa),sample flow rate (lpm),inlet stack bypass flow (lpm),air temperature of the measurement (°C),ambient temperature measured by the external sensor (°C),aerosol sample conditioner tube jacket temperature (°C),OPC LED temperature (°C),internal box temperature (°C),relative humidity of the measurement (%),span deviation,mass concentration of particles derived from Lorenz-Mie calculation of OPC scattering (μg/m³),mass concentration of particles derived from Lorenz-Mie calculation of OPC scattering (μg/m³),mass concentration of particles derived from Lorenz-Mie calculation of OPC scattering (μg/m³)
DateTimeUTC,F1_M11,P_M11,Q1_M11,Q2_M11,T1_M11,T2_M11,T3_M11,T4_M11,T5_M11,U1_M11,ZSPAN_M11,X0_M11,X2_M11,X1_M11
2024-05-04 06:00:00,SystemResetWarning,0832.5,5.00,000.00,024.2,023.4,000.0,032.8,026.0,018.3,0000.0,0004.38,0002.89,0002.45
2024-05-04 06:01:00,SystemResetWarning,0832.6,5.01,000.00,024.2,023.4,000.0,032.8,026.0,018.3,0000.0,0004.43,0002.90,0002.48
2024-05-04 06:02:00,SystemResetWarning,0832.7,5.00,000.00,024.2,023.4,000.0,032.8,026.0,018.3,0000.0,0004.43,0002.90,0002.48
2024-05-04 06:03:00,SystemResetWarning,0832.6,5.01,000.00,024.1,023.4,000.0,032.8,026.0,018.4,0000.0,0004.39,0002.88,0002.48
2024-05-04 06:04:00,SystemResetWarning,0832.6,4.99,000.00,024.1,023.4,000.0,032.8,026.0,018.4,0000.0,0004.92,0002.91,0002.49
2024-05-04 06:05:00,SystemResetWarning,0832.5,4.99,000.00,024.1,023.4,000.0,032.7,026.0,018.4,0000.0,0004.54,0002.93,0002.51
2024-05-04 06:06:00,SystemResetWarning,0832.5,5.00,000.00,024.1,023.4,000.0,032.7,026.0,018.4,0000.0,0004.79,0002.91,0002.52
2024-05-04 06:07:00,SystemResetWarning,0832.6,5.00,000.00,024.1,023.4,000.0,032.7,025.9,018.4,0000.0,0004.82,0002.87,0002.52
2024-05-04 06:08:00,SystemResetWarning,0832.5,4.99,000.00,024.1,023.4,000.0,032.7,026.0,018.4,0000.0,0004.76,0002.86,0002.52
2024-05-04 06:09:00,SystemResetWarning,0832.5,5.00,000.00,024.1,023.3,000.0,032.7,025.9,018.3,0000.0,0005.24,0002.86,0002.52
2024-05-04 06:10:00,SystemResetWarning,0832.5,5.00,000.00,024.1,023.3,000.0,032.7,025.9,018.3,0000.0,0005.57,0002.83,0002.52
2024-05-04 06:11:00,SystemResetWarning,0832.6,5.01,000.00,024.0,023.3,000.0,032.6,025.7,018.3,0000.0,0005.55,0002.78,0002.50
2024-05-04 06:12:00,SystemResetWarning,0832.6,5.00,000.00,024.0,023.2,000.0,032.6,025.7,018.3,0000.0,0005.57,0002.80,0002.50
2024-05-04 06:13:00,SystemResetWarning,0832.6,5.00,000.00,024.0,023.2,000.0,032.6,025.6,018.5,0000.0,0005.57,0002.80,0002.50
2024-05-04 06:14:00,SystemResetWarning,0832.6,5.00,000.00,024.0,023.2,000.0,032.6,025.7,018.5,0000.0,0005.58,0002.82,0002.49
2024-05-04 06:15:00,SystemResetWarning,0832.7,5.00,000.00,023.9,023.2,000.0,032.6,025.6,018.5,0000.0,0005.28,0002.81,0002.48
2024-05-04 06:16:00,SystemResetWarning,0832.6,5.00,000.00,023.9,023.1,000.0,032.6,025.6,018.5,0000.0,0004.75,0002.79,0002.46
2024-05-04 06:17:00,SystemResetWarning,0832.7,5.00,000.00,023.9,023.1,000.0,032.5,025.6,018.4,0000.0,0005.40,0002.74,0002.43
2024-05-04 06:18:00,SystemResetWarning,0832.6,5.00,000.00,023.9,023.1,000.0,032.5,025.6,018.4,0000.0,0006.29,0002.72,0002.40
2024-05-04 06:19:00,SystemResetWarning,0832.7,4.99,000.00,023.9,023.1,000.0,032.5,025.6,018.4,0000.0,0006.52,0002.71,0002.38
2024-05-04 06:20:00,SystemResetWarning,0832.6,5.00,000.00,023.9,023.1,000.0,032.5,025.6,018.4,0000.0,0006.07,0002.66,0002.36
2024-05-04 06:21:00,SystemResetWarning,0832.7,4.99,000.00,023.8,023.1,000.0,032.5,025.6,018.3,0000.0,0006.35,0002.65,0002.34
2024-05-04 06:22:00,SystemResetWarning,0832.7,5.00,000.00,023.8,023.1,000.0,032.5,025.6,018.3,0000.0,0007.22,0002.64,0002.32
2024-05-04 06:23:00,SystemResetWarning,0832.7,5.01,000.00,023.8,023.1,000.0,032.5,025.6,018.2,0000.0,0007.85,0002.59,0002.30
2024-05-04 06:24:00,SystemResetWarning,0832.7,5.00,000.00,023.8,023.1,000.0,032.5,025.6,018.2,0000.0,0008.27,0002.56,0002.28
2024-05-04 06:25:00,SystemResetWarning,0832.7,5.01,000.00,023.8,023.1,000.0,032.5,025.6,018.4,0000.0,0008.44,0002.54,0002.26
2024-05-04 06:26:00,SystemResetWarning,0832.7,5.00,000.00,023.8,023.1,000.0,032.5,025.6,018.4,0000.0,0008.65,0002.53,0002.24
2024-05-04 06:27:00,SystemResetWarning,0832.7,5.00,000.00,023.8,023.0,000.0,032.4,025.5,018.5,0000.0,0008.63,0002.52,0002.23
2024-05-04 06:28:00,SystemResetWarning,0832.7,4.99,000.00,023.7,023.0,000.0,032.4,025.4,018.5,0000.0,0008.64,0002.53,0002.23
2024-05-04 06:29:00,SystemResetWarning,0832.7,5.00,000.00,023.7,023.0,000.0,032.4,025.4,018.5,0000.0,0007.94,0002.52,0002.23
2024-05-04 06:30:00,SystemResetWarning,0832.7,5.00,000.00,023.7,022.9,000.0,032.3,025.3,018.5,0000.0,0007.76,0002.51,0002.22
2024-05-04 06:31:00,SystemResetWarning,0832.7,5.00,000.00,023.6,022.9,000.0,032.3,025.2,018.5,0000.0,0007.74,0002.49,0002.22
2024-05-04 06:32:00,SystemResetWarning,0832.7,5.00,000.00,023.6,022.8,000.0,032.3,025.2,018.6,0000.0,0007.37,0002.46,0002.20
2024-05-04 06:33:00,SystemResetWarning,0832.7,5.00,000.00,023.6,022.8,000.0,032.3,025.3,018.6,0000.0,0006.43,0002.48,0002.20
2024-05-04 06:34:00,SystemResetWarning,0832.7,5.00,000.00,023.6,022.8,000.0,032.2,025.3,018.7,0000.0,0006.44,0002.50,0002.19
2024-05-04 06:35:00,SystemResetWarning,0832.7,5.00,000.00,023.6,022.8,000.0,032.2,025.2,018.7,0000.0,0005.70,0002.52,0002.18
2024-05-04 06:36:00,SystemResetWarning,0832.8,5.00,000.00,023.5,022.8,000.0,032.2,025.2,018.8,0000.0,0006.61,0002.46,0002.16
2024-05-04 06:37:00,SystemResetWarning,0832.7,5.00,000.00,023.5,022.8,000.0,032.2,025.2,018.9,0000.0,0006.72,0002.44,0002.15
2024-05-04 06:38:00,SystemResetWarning,0832.7,4.99,000.00,023.5,022.8,000.0,032.2,025.1,018.8,0000.0,0006.66,0002.40,0002.12
2024-05-04 06:39:00,SystemResetWarning,0832.7,5.01,000.00,023.5,022.7,000.0,032.1,025.1,018.7,0000.0,0005.88,0002.35,0002.10
2024-05-04 06:40:00,SystemResetWarning,0832.7,4.99,000.00,023.4,022.7,000.0,032.1,025.0,018.6,0000.0,0005.76,0002.31,0002.07
2024-05-04 06:41:00,SystemResetWarning,0832.7,5.00,000.00,023.4,022.6,000.0,032.1,025.0,018.6,0000.0,0005.94,0002.31,0002.05
2024-05-04 06:42:00,SystemResetWarning,0832.8,4.99,000.00,023.4,022.6,000.0,032.0,025.0,018.7,0000.0,0006.33,0002.28,0002.02
2024-05-04 06:43:00,SystemResetWarning,0832.7,5.00,000.00,023.3,022.6,000.0,032.0,025.0,018.7,0000.0,0006.35,0002.27,0002.00
2024-05-04 06:44:00,SystemResetWarning,0832.8,5.00,000.00,023.3,022.6,000.0,032.0,025.0,018.9,0000.0,0006.24,0002.23,0001.98
2024-05-04 06:45:00,SystemResetWarning,0832.8,5.00,000.00,023.3,022.6,000.0,032.0,025.0,018.9,0000.0,0005.39,0002.22,0001.97
2024-05-04 06:46:00,SystemResetWarning,0832.8,5.00,000.00,023.3,022.5,000.0,031.9,024.9,018.9,0000.0,0005.12,0002.20,0001.96
2024-05-04 06:47:00,SystemResetWarning,0832.8,5.00,000.00,023.2,022.5,000.0,031.9,024.9,018.8,0000.0,0004.26,0002.20,0001.95
2024-05-04 06:48:00,SystemResetWarning,0832.8,5.00,000.00,023.2,022.5,000.0,031.9,024.9,018.7,0000.0,0003.32,0002.19,0001.94
2024-05-04 06:49:00,SystemResetWarning,0832.8,5.00,000.00,023.2,022.4,000.0,031.8,024.9,018.7,0000.0,0003.57,0002.19,0001.92
2024-05-04 06:50:00,SystemResetWarning,0832.9,5.00,000.00,023.2,022.4,000.0,031.8,024.8,018.7,0000.0,0003.94,0002.17,0001.91
2024-05-04 06:51:00,SystemResetWarning,0833.1,5.00,000.00,023.1,022.4,000.0,031.8,024.8,018.8,0000.0,0004.26,0002.15,0001.89
2024-05-04 06:52:00,SystemResetWarning,0833.3,5.00,000.00,023.1,022.3,000.0,031.8,024.7,018.9,0000.0,0004.18,0002.14,0001.88
2024-05-04 06:53:00,SystemResetWarning,0833.5,5.00,000.00,023.1,022.3,000.0,031.7,024.6,018.9,0000.0,0003.78,0002.12,0001.87
2024-05-04 06:54:00,SystemResetWarning,0833.4,5.00,000.00,023.0,022.3,000.0,031.7,024.6,018.9,0000.0,0003.70,0002.11,0001.85
2024-05-04 06:55:00,SystemResetWarning,0833.4,5.00,000.00,023.0,022.2,000.0,031.7,024.6,018.9,0000.0,0003.73,0002.11,0001.83
2024-05-04 06:56:00,SystemResetWarning,0833.3,5.00,000.00,023.0,022.2,000.0,031.6,024.5,018.9,0000.0,0003.59,0002.10,0001.81
2024-05-04 06:57:00,SystemResetWarning,0833.4,5.01,000.00,022.9,022.2,000.0,031.6,024.5,019.0,0000.0,0003.61,0002.08,0001.79
2024-05-04 06:58:00,SystemResetWarning,0833.4,5.01,000.00,022.9,022.1,000.0,031.6,024.5,019.0,0000.0,0004.15,0002.10,0001.77
2024-05-04 06:59:00,SystemResetWarning,0833.4,5.00,000.00,022.9,022.1,000.0,031.5,024.5,019.0,0000.0,0004.52,0002.09,0001.76
